Time,TemperatureF,DewpointF,PressureIn,WindDirection,WindDirectionDegrees,WindSpeedMPH,WindSpeedGustMPH,Humidity,HourlyPrecipIn,Conditions,Clouds,dailyrainin,SoftwareType,DateUTC
2013-01-25 00:09:00,40.5,40.0,29.98,East,101,8.0,19.0,96,0.00,,,0.00,weatherlink.com 1.10,2013-01-25 08:09:00,
2013-01-25 00:24:00,40.5,40.0,29.98,East,91,9.0,25.0,97,0.00,,,0.00,weatherlink.com 1.10,2013-01-25 08:24:00,
2013-01-25 00:39:00,40.7,40.0,29.99,ESE,104,14.0,23.0,96,0.00,,,0.00,weatherlink.com 1.10,2013-01-25 08:39:00,
2013-01-25 00:54:00,40.7,40.0,29.98,ESE,106,12.0,19.0,97,0.00,,,0.00,weatherlink.com 1.10,2013-01-25 08:54:00,
2013-01-25 01:09:00,40.7,40.0,30.00,SE,124,7.0,17.0,97,0.01,,,0.01,weatherlink.com 1.10,2013-01-25 09:09:00,
2013-01-25 01:25:00,40.7,40.0,30.00,East,97,14.0,14.0,97,0.01,,,0.01,weatherlink.com 1.10,2013-01-25 09:25:00,
2013-01-25 01:39:00,40.7,40.0,29.99,ESE,107,14.0,24.0,98,0.01,,,0.01,weatherlink.com 1.10,2013-01-25 09:39:00,
2013-01-25 01:54:00,40.7,40.0,29.99,SE,132,7.0,23.0,98,0.01,,,0.01,weatherlink.com 1.10,2013-01-25 09:54:00,
2013-01-25 02:10:00,40.8,40.0,29.99,ESE,119,11.0,18.0,98,0.00,,,0.01,weatherlink.com 1.10,2013-01-25 10:10:00,
2013-01-25 02:24:00,40.8,40.0,29.98,SE,125,7.0,19.0,98,0.00,,,0.01,weatherlink.com 1.10,2013-01-25 10:24:00,
2013-01-25 02:39:00,40.8,40.0,29.99,ESE,105,9.0,17.0,98,0.01,,,0.02,weatherlink.com 1.10,2013-01-25 10:39:00,
2013-01-25 02:54:00,40.8,41.0,30.00,ESE,121,5.0,16.0,99,0.01,,,0.02,weatherlink.com 1.10,2013-01-25 10:54:00,
2013-01-25 03:09:00,40.8,40.0,30.00,ESE,121,8.0,15.0,98,0.01,,,0.02,weatherlink.com 1.10,2013-01-25 11:09:00,
2013-01-25 03:24:00,40.9,40.0,30.00,ESE,105,5.0,9.0,98,0.01,,,0.02,weatherlink.com 1.10,2013-01-25 11:24:00,
2013-01-25 03:40:00,40.9,41.0,30.01,ESE,108,4.0,11.0,99,0.00,,,0.02,weatherlink.com 1.10,2013-01-25 11:40:00,
2013-01-25 03:55:00,40.9,41.0,30.01,ESE,105,3.0,13.0,99,0.00,,,0.02,weatherlink.com 1.10,2013-01-25 11:55:00,
2013-01-25 04:09:00,40.9,41.0,30.02,East,101,3.0,9.0,99,0.00,,,0.02,weatherlink.com 1.10,2013-01-25 12:09:00,
2013-01-25 04:25:00,40.9,41.0,30.02,SE,140,8.0,8.0,99,0.00,,,0.02,weatherlink.com 1.10,2013-01-25 12:25:00,
2013-01-25 04:40:00,40.9,41.0,30.02,East,98,5.0,10.0,99,0.00,,,0.02,weatherlink.com 1.10,2013-01-25 12:40:00,
2013-01-25 04:54:00,40.8,41.0,30.02,East,100,6.0,8.0,99,0.00,,,0.02,weatherlink.com 1.10,2013-01-25 12:54:00,
2013-01-25 05:10:00,40.7,41.0,30.02,East,101,5.0,10.0,99,0.00,,,0.02,weatherlink.com 1.10,2013-01-25 13:10:00,
2013-01-25 05:24:00,40.7,41.0,30.02,ESE,104,4.0,12.0,99,0.00,,,0.02,weatherlink.com 1.10,2013-01-25 13:24:00,
2013-01-25 05:39:00,40.7,41.0,30.02,East,93,5.0,10.0,99,0.00,,,0.02,weatherlink.com 1.10,2013-01-25 13:39:00,
2013-01-25 05:55:00,40.6,40.0,30.02,East,94,6.0,9.0,99,0.00,,,0.02,weatherlink.com 1.10,2013-01-25 13:55:00,
2013-01-25 06:10:00,40.3,40.0,30.02,East,90,3.0,8.0,99,0.00,,,0.02,weatherlink.com 1.10,2013-01-25 14:10:00,
2013-01-25 06:25:00,40.0,40.0,30.02,ESE,105,3.0,9.0,98,0.00,,,0.02,weatherlink.com 1.10,2013-01-25 14:25:00,
2013-01-25 06:40:00,40.2,40.0,30.03,East,101,3.0,8.0,99,0.00,,,0.02,weatherlink.com 1.10,2013-01-25 14:40:00,
2013-01-25 06:55:00,40.5,40.0,30.03,ESE,105,5.0,8.0,99,0.00,,,0.02,weatherlink.com 1.10,2013-01-25 14:55:00,
2013-01-25 07:10:00,40.3,40.0,30.03,ENE,75,5.0,9.0,99,0.00,,,0.02,weatherlink.com 1.10,2013-01-25 15:10:00,
2013-01-25 07:25:00,40.1,40.0,30.03,East,87,5.0,7.0,98,0.00,,,0.02,weatherlink.com 1.10,2013-01-25 15:25:00,
2013-01-25 07:40:00,39.8,39.0,30.03,ESE,103,8.0,8.0,98,0.00,,,0.02,weatherlink.com 1.10,2013-01-25 15:40:00,
2013-01-25 07:55:00,40.1,40.0,30.03,East,96,1.0,8.0,98,0.00,,,0.02,weatherlink.com 1.10,2013-01-25 15:55:00,
2013-01-25 08:10:00,39.5,39.0,30.03,East,89,2.0,8.0,97,0.00,,,0.02,weatherlink.com 1.10,2013-01-25 16:10:00,
2013-01-25 08:25:00,39.1,38.0,30.03,ENE,67,4.0,5.0,97,0.00,,,0.02,weatherlink.com 1.10,2013-01-25 16:25:00,
2013-01-25 08:40:00,38.8,38.0,30.03,ENE,67,4.0,5.0,97,0.00,,,0.02,weatherlink.com 1.10,2013-01-25 16:40:00,
2013-01-25 08:55:00,38.9,38.0,30.04,ENE,67,2.0,4.0,98,0.00,,,0.02,weatherlink.com 1.10,2013-01-25 16:55:00,
2013-01-25 09:10:00,39.4,39.0,30.04,ENE,67,3.0,3.0,98,0.00,,,0.02,weatherlink.com 1.10,2013-01-25 17:10:00,
2013-01-25 09:25:00,39.6,39.0,30.04,ENE,67,3.0,3.0,97,0.00,,,0.02,weatherlink.com 1.10,2013-01-25 17:25:00,
2013-01-25 09:40:00,39.6,39.0,30.04,ENE,72,3.0,7.0,97,0.00,,,0.02,weatherlink.com 1.10,2013-01-25 17:40:00,
2013-01-25 09:55:00,40.3,39.0,30.04,ENE,71,1.0,4.0,96,0.00,,,0.02,weatherlink.com 1.10,2013-01-25 17:55:00,
2013-01-25 10:10:00,41.3,40.0,30.04,ENE,71,0.0,3.0,96,0.00,,,0.02,weatherlink.com 1.10,2013-01-25 18:10:00,
2013-01-25 10:25:00,43.3,41.0,30.04,ENE,71,0.0,3.0,91,0.00,,,0.02,weatherlink.com 1.10,2013-01-25 18:25:00,
2013-01-25 10:40:00,45.6,41.0,30.04,ENE,71,3.0,3.0,83,0.00,,,0.02,weatherlink.com 1.10,2013-01-25 18:40:00,
2013-01-25 10:55:00,46.7,41.0,30.04,NE,55,0.0,4.0,80,0.00,,,0.02,weatherlink.com 1.10,2013-01-25 18:55:00,
2013-01-25 11:10:00,45.6,42.0,30.04,SE,140,3.0,6.0,87,0.00,,,0.02,weatherlink.com 1.10,2013-01-25 19:10:00,
2013-01-25 11:25:00,45.1,42.0,30.04,ESE,120,2.0,5.0,89,0.00,,,0.02,weatherlink.com 1.10,2013-01-25 19:25:00,
2013-01-25 11:40:00,44.7,42.0,30.03,ESE,119,1.0,4.0,90,0.00,,,0.02,weatherlink.com 1.10,2013-01-25 19:40:00,
2013-01-25 11:55:00,45.5,43.0,30.02,ESE,119,2.0,5.0,92,0.00,,,0.02,weatherlink.com 1.10,2013-01-25 19:55:00,
2013-01-25 12:10:00,45.5,43.0,30.01,SE,144,2.0,6.0,91,0.00,,,0.02,weatherlink.com 1.10,2013-01-25 20:10:00,
2013-01-25 12:25:00,44.8,42.0,30.00,SE,132,2.0,6.0,91,0.00,,,0.02,weatherlink.com 1.10,2013-01-25 20:25:00,
2013-01-25 12:40:00,44.8,42.0,30.00,SE,132,0.0,6.0,91,0.00,,,0.02,weatherlink.com 1.10,2013-01-25 20:40:00,
2013-01-25 12:55:00,45.3,43.0,29.99,South,188,6.0,12.0,90,0.00,,,0.02,weatherlink.com 1.10,2013-01-25 20:55:00,
2013-01-25 13:11:00,45.7,42.0,29.99,South,175,0.0,8.0,87,0.00,,,0.02,weatherlink.com 1.10,2013-01-25 21:11:00,
2013-01-25 13:25:00,44.9,42.0,29.99,SE,132,4.0,7.0,90,0.00,,,0.02,weatherlink.com 1.10,2013-01-25 21:25:00,
2013-01-25 13:40:00,44.5,41.0,29.98,SE,132,4.0,6.0,86,0.00,,,0.02,weatherlink.com 1.10,2013-01-25 21:40:00,
2013-01-25 13:55:00,45.4,41.0,29.97,SE,136,7.0,12.0,83,0.00,,,0.02,weatherlink.com 1.10,2013-01-25 21:55:00,
2013-01-25 14:10:00,44.9,41.0,29.97,ESE,115,5.0,8.0,85,0.00,,,0.02,weatherlink.com 1.10,2013-01-25 22:10:00,
2013-01-25 14:25:00,44.6,41.0,29.96,SE,141,3.0,9.0,87,0.00,,,0.02,weatherlink.com 1.10,2013-01-25 22:25:00,
2013-01-25 14:41:00,44.3,40.0,29.96,SSE,166,4.0,11.0,86,0.00,,,0.02,weatherlink.com 1.10,2013-01-25 22:41:00,
2013-01-25 14:55:00,44.7,41.0,29.95,SE,138,0.0,11.0,86,0.00,,,0.02,weatherlink.com 1.10,2013-01-25 22:55:00,
2013-01-25 15:10:00,44.9,41.0,29.95,ESE,123,3.0,10.0,86,0.00,,,0.02,weatherlink.com 1.10,2013-01-25 23:10:00,
2013-01-25 15:26:00,45.2,41.0,29.95,SE,146,3.0,9.0,86,0.00,,,0.02,weatherlink.com 1.10,2013-01-25 23:26:00,
2013-01-25 15:40:00,45.7,41.0,29.95,South,181,7.0,12.0,84,0.00,,,0.02,weatherlink.com 1.10,2013-01-25 23:40:00,
2013-01-25 15:55:00,45.0,41.0,29.95,SSE,161,0.0,9.0,84,0.00,,,0.02,weatherlink.com 1.10,2013-01-25 23:55:00,
2013-01-25 16:11:00,44.8,41.0,29.95,SE,138,2.0,6.0,85,0.00,,,0.02,weatherlink.com 1.10,2013-01-26 00:11:00,
2013-01-25 16:25:00,44.9,41.0,29.95,SSE,150,2.0,8.0,86,0.00,,,0.02,weatherlink.com 1.10,2013-01-26 00:25:00,
2013-01-25 16:41:00,44.0,40.0,29.94,SE,146,2.0,5.0,87,0.00,,,0.02,weatherlink.com 1.10,2013-01-26 00:41:00,
2013-01-25 16:56:00,42.5,40.0,29.94,East,92,0.0,8.0,89,0.00,,,0.02,weatherlink.com 1.10,2013-01-26 00:56:00,
2013-01-25 17:11:00,41.6,39.0,29.94,East,93,0.0,6.0,90,0.00,,,0.02,weatherlink.com 1.10,2013-01-26 01:11:00,
2013-01-25 17:26:00,40.7,38.0,29.94,East,93,5.0,5.0,91,0.00,,,0.02,weatherlink.com 1.10,2013-01-26 01:26:00,
2013-01-25 17:41:00,40.3,39.0,29.93,East,99,3.0,8.0,93,0.00,,,0.02,weatherlink.com 1.10,2013-01-26 01:41:00,
2013-01-25 17:56:00,40.5,39.0,29.93,East,100,1.0,10.0,93,0.00,,,0.02,weatherlink.com 1.10,2013-01-26 01:56:00,
2013-01-25 18:11:00,41.1,39.0,29.93,ESE,103,4.0,9.0,92,0.00,,,0.02,weatherlink.com 1.10,2013-01-26 02:11:00,
2013-01-25 18:26:00,41.3,39.0,29.93,ESE,106,5.0,9.0,92,0.00,,,0.02,weatherlink.com 1.10,2013-01-26 02:26:00,
2013-01-25 18:41:00,41.6,40.0,29.92,ESE,112,4.0,9.0,92,0.00,,,0.02,weatherlink.com 1.10,2013-01-26 02:41:00,
2013-01-25 18:56:00,41.4,39.0,29.92,East,95,3.0,8.0,91,0.00,,,0.02,weatherlink.com 1.10,2013-01-26 02:56:00,
2013-01-25 19:11:00,41.2,39.0,29.91,ESE,107,9.0,9.0,90,0.00,,,0.02,weatherlink.com 1.10,2013-01-26 03:11:00,
2013-01-25 19:26:00,41.2,39.0,29.91,ESE,109,4.0,8.0,90,0.00,,,0.02,weatherlink.com 1.10,2013-01-26 03:26:00,
2013-01-25 19:41:00,41.6,39.0,29.91,ESE,108,5.0,8.0,89,0.00,,,0.02,weatherlink.com 1.10,2013-01-26 03:41:00,
2013-01-25 19:56:00,42.1,39.0,29.91,ESE,122,3.0,9.0,89,0.00,,,0.02,weatherlink.com 1.10,2013-01-26 03:56:00,
2013-01-25 20:11:00,42.3,40.0,29.91,ESE,113,2.0,9.0,90,0.00,,,0.02,weatherlink.com 1.10,2013-01-26 04:11:00,
2013-01-25 20:26:00,42.1,40.0,29.90,East,86,5.0,8.0,91,0.00,,,0.02,weatherlink.com 1.10,2013-01-26 04:26:00,
2013-01-25 20:41:00,42.2,40.0,29.90,SE,131,5.0,12.0,91,0.00,,,0.02,weatherlink.com 1.10,2013-01-26 04:41:00,
2013-01-25 20:56:00,42.0,40.0,29.89,ESE,103,2.0,12.0,92,0.00,,,0.02,weatherlink.com 1.10,2013-01-26 04:56:00,
2013-01-25 21:11:00,41.8,40.0,29.89,ESE,109,7.0,10.0,92,0.00,,,0.02,weatherlink.com 1.10,2013-01-26 05:11:00,
2013-01-25 21:26:00,41.8,40.0,29.88,SE,128,6.0,15.0,92,0.00,,,0.02,weatherlink.com 1.10,2013-01-26 05:26:00,
2013-01-25 21:41:00,41.7,39.0,29.88,ESE,102,5.0,14.0,91,0.00,,,0.02,weatherlink.com 1.10,2013-01-26 05:41:00,
2013-01-25 21:56:00,41.6,39.0,29.87,ESE,120,7.0,17.0,90,0.00,,,0.02,weatherlink.com 1.10,2013-01-26 05:56:00,
2013-01-25 22:11:00,41.6,39.0,29.88,ESE,122,5.0,14.0,90,0.00,,,0.02,weatherlink.com 1.10,2013-01-26 06:11:00,
2013-01-25 22:26:00,41.1,39.0,29.88,ESE,117,5.0,15.0,91,0.00,,,0.02,weatherlink.com 1.10,2013-01-26 06:26:00,
2013-01-25 22:41:00,40.9,39.0,29.87,East,84,3.0,15.0,91,0.00,,,0.02,weatherlink.com 1.10,2013-01-26 06:41:00,
2013-01-25 22:56:00,40.8,38.0,29.87,East,100,11.0,22.0,91,0.00,,,0.02,weatherlink.com 1.10,2013-01-26 06:56:00,
2013-01-25 23:11:00,40.8,38.0,29.87,ESE,113,5.0,16.0,90,0.00,,,0.02,weatherlink.com 1.10,2013-01-26 07:11:00,
2013-01-25 23:26:00,40.6,38.0,29.86,South,186,12.0,17.0,90,0.00,,,0.02,weatherlink.com 1.10,2013-01-26 07:26:00,
2013-01-25 23:41:00,40.4,38.0,29.86,ESE,113,9.0,18.0,90,0.00,,,0.02,weatherlink.com 1.10,2013-01-26 07:41:00,
2013-01-25 23:56:00,40.2,38.0,29.86,ESE,107,15.0,19.0,91,0.00,,,0.02,weatherlink.com 1.10,2013-01-26 07:56:00,